Weather History for Logansport, IN

Change the Weather History Date:

Monday, November 12, 2012

  Actual Average Record
Temperature  
Mean Temperature 46 °F -  
Max Temperature 59 °F 48 °F 33 °F (2013)
Min Temperature 32 °F 33 °F 21 °F (2013)
Degree Days  
Heating Degree Days 20    
Moisture  
Dew Point 32 °F    
Average Humidity 84    
Maximum Humidity 100    
Minimum Humidity 65    
Precipitation  
Precipitation 0.27 in - - ()
Sea Level Pressure  
Sea Level Pressure 30.15 in    
Wind  
Wind Speed 13 mph ()    
Max Wind Speed 24 mph    
Max Gust Speed 38 mph    
Visibility 8.3 miles    
Events Rain , Snow    
Averages and records for this station are not official NWS values.
T = Trace of Precipitation, MM = Missing Value Source: Averaged Metar Reports

Daily Weather History Graph

Daily Weather History Graph

Search for Another Location

Airport:

Trip Planner

Search our weather history database for the weather conditions in past years. The results will help you decide how hot, cold, wet, or windy it might be!

Date:

Astronomy

Nov. 12, 2012 Rise Set
Actual Time 7:29 AM EST 5:29 PM EST
Civil Twilight 7:00 AM EST 5:58 PM EST
Nautical Twilight 6:27 AM EST 6:31 PM EST
Astronomical Twilight 5:54 AM EST 7:03 PM EST
Moon 5:53 AM EST (11/12) 4:34 PM EST (11/12)
Length of Visible Light 10h 58m
Length of Day
10h 00m
Waning Crescent, 2% of the Moon is Illuminated
Nov 12
Waning Crescent
Nov 13
New
Nov 20
First Quarter
Nov 28
Full
Dec 6
Last Quarter

Hourly Weather History & Observations

Time (EST) Temp. Windchill Dew Point Humidity Pressure Visibility Wind Dir Wind Speed Gust Speed Precip Events Conditions
12:15 AM 59.0 °F - 50.0 °F 72% 29.95 in 7.0 mi SW 24.2 mph 38.0 mph N/A Rain Rain
12:35 AM 53.6 °F - 50.0 °F 88% 29.95 in 3.0 mi WNW 10.4 mph 25.3 mph 0.01 in Rain Rain
12:55 AM 50.0 °F - 50.0 °F 100% 29.96 in 4.0 mi WNW 11.5 mph 18.4 mph 0.02 in   Heavy Drizzle
1:15 AM 50.0 °F - 50.0 °F 100% 29.96 in 5.0 mi West 6.9 mph - N/A   Heavy Drizzle
1:35 AM 50.0 °F - 50.0 °F 100% 29.97 in 4.0 mi West 8.1 mph - 0.02 in Rain Heavy Rain
1:55 AM 50.0 °F - 50.0 °F 100% 29.96 in 7.0 mi SW 4.6 mph - 0.05 in Rain Light Rain
2:15 AM 50.0 °F - 50.0 °F 100% 29.95 in 7.0 mi SSW 3.5 mph - 0.01 in Rain Rain
2:35 AM 50.0 °F - 50.0 °F 100% 29.95 in 7.0 mi SW 4.6 mph - 0.03 in Rain Light Rain
2:55 AM 50.0 °F - 50.0 °F 100% 29.96 in 7.0 mi SW 5.8 mph - 0.07 in Rain Light Rain
3:15 AM 50.0 °F - 50.0 °F 100% 29.97 in 5.0 mi SSW 6.9 mph - 0.02 in Rain Rain
3:35 AM 48.2 °F - 46.4 °F 93% 29.97 in 7.0 mi West 16.1 mph 24.2 mph 0.05 in Rain Rain
3:55 AM 42.8 °F 35.4 °F 42.8 °F 100% 29.98 in 4.0 mi West 15.0 mph - 0.08 in Rain Light Rain
4:15 AM 42.8 °F 36.2 °F 41.0 °F 93% 30.00 in 5.0 mi West 12.7 mph - 0.01 in Rain Rain
4:55 AM 41.0 °F 35.8 °F 41.0 °F 100% 29.99 in 10.0 mi West 8.1 mph - 0.03 in   Overcast
5:15 AM 41.0 °F 32.8 °F 39.2 °F 93% 30.02 in 5.0 mi West 16.1 mph 23.0 mph 0.01 in   Overcast
5:35 AM 39.2 °F 31.6 °F 37.4 °F 93% 30.03 in 5.0 mi West 12.7 mph 18.4 mph 0.01 in   Overcast
5:55 AM 37.4 °F 29.8 °F 35.6 °F 93% 30.02 in 7.0 mi WNW 11.5 mph - 0.01 in   Overcast
6:15 AM 37.4 °F 30.8 °F 35.6 °F 93% 30.03 in 7.0 mi West 9.2 mph - N/A   Overcast
6:35 AM 37.4 °F 29.8 °F 35.6 °F 93% 30.03 in 5.0 mi West 11.5 mph 16.1 mph 0.01 in   Overcast
6:55 AM 35.6 °F 26.6 °F 35.6 °F 100% 30.05 in 7.0 mi West 13.8 mph 17.3 mph 0.01 in   Overcast
7:15 AM 35.6 °F 25.9 °F 35.6 °F 100% 30.06 in 5.0 mi West 16.1 mph 20.7 mph N/A   Overcast
7:35 AM 35.6 °F 25.9 °F 33.8 °F 93% 30.06 in 7.0 mi WNW 16.1 mph 20.7 mph N/A   Overcast
7:55 AM 33.8 °F 24.8 °F 32.0 °F 93% 30.08 in 7.0 mi West 12.7 mph - N/A   Overcast
8:15 AM 33.8 °F 23.2 °F 32.0 °F 93% 30.11 in 5.0 mi West 17.3 mph 21.9 mph N/A Snow Light Snow
8:35 AM 32.0 °F 21.6 °F 32.0 °F 100% 30.11 in 4.0 mi West 15.0 mph 19.6 mph N/A Snow Light Snow
8:55 AM 32.0 °F 22.5 °F 32.0 °F 100% 30.12 in 0.8 mi West 12.7 mph 20.7 mph N/A Snow Light Snow
9:15 AM 32.0 °F 21.2 °F 30.2 °F 93% 30.14 in 10.0 mi West 16.1 mph 23.0 mph N/A Snow Light Snow
9:35 AM 32.0 °F 22.5 °F 30.2 °F 93% 30.14 in 10.0 mi West 12.7 mph 23.0 mph N/A   Overcast
9:55 AM 32.0 °F 19.5 °F 28.4 °F 87% 30.16 in 10.0 mi West 21.9 mph 27.6 mph N/A   Overcast
10:15 AM 32.0 °F 21.6 °F 28.4 °F 87% 30.15 in 10.0 mi West 15.0 mph 24.2 mph N/A   Mostly Cloudy
10:35 AM 32.0 °F 20.1 °F 28.4 °F 87% 30.15 in 10.0 mi West 19.6 mph 26.5 mph N/A   Scattered Clouds
10:55 AM 32.0 °F 22.1 °F 26.6 °F 80% 30.16 in 10.0 mi West 13.8 mph 26.5 mph N/A   Mostly Cloudy
11:15 AM 32.0 °F 20.5 °F 26.6 °F 80% 30.17 in 10.0 mi West 18.4 mph 25.3 mph N/A   Mostly Cloudy
11:35 AM 33.8 °F 22.5 °F 28.4 °F 81% 30.17 in 10.0 mi WSW 19.6 mph 26.5 mph N/A   Overcast
11:55 AM 32.0 °F 21.2 °F 26.6 °F 80% 30.17 in 10.0 mi West 16.1 mph 24.2 mph N/A   Mostly Cloudy
12:15 PM 33.8 °F 22.2 °F 28.4 °F 81% 30.17 in 10.0 mi West 20.7 mph 27.6 mph N/A   Scattered Clouds
12:35 PM 35.6 °F 25.2 °F 28.4 °F 75% 30.17 in 10.0 mi West 18.4 mph 29.9 mph N/A   Mostly Cloudy
12:55 PM 33.8 °F 21.9 °F 26.6 °F 75% 30.16 in 10.0 mi West 21.9 mph 27.6 mph N/A   Scattered Clouds
1:15 PM 35.6 °F 24.8 °F 26.6 °F 70% 30.17 in 10.0 mi West 19.6 mph 27.6 mph N/A   Scattered Clouds
1:35 PM 35.6 °F 24.8 °F 26.6 °F 70% 30.17 in 10.0 mi West 19.6 mph 28.8 mph N/A   Mostly Cloudy
1:55 PM 35.6 °F 24.2 °F 26.6 °F 70% 30.18 in 10.0 mi West 21.9 mph 32.2 mph N/A   Mostly Cloudy
2:15 PM 37.4 °F 28.2 °F 28.4 °F 70% 30.18 in 10.0 mi West 16.1 mph 25.3 mph N/A   Mostly Cloudy
2:35 PM 35.6 °F 24.8 °F 26.6 °F 70% 30.18 in 10.0 mi West 19.6 mph 27.6 mph N/A   Scattered Clouds
2:55 PM 35.6 °F 23.7 °F 26.6 °F 70% 30.18 in 10.0 mi WSW 24.2 mph 31.1 mph N/A   Mostly Cloudy
3:55 PM 35.6 °F 24.5 °F 24.8 °F 65% 30.20 in 10.0 mi WSW 20.7 mph 29.9 mph N/A   Scattered Clouds
4:15 PM 35.6 °F 24.2 °F 26.6 °F 70% 30.21 in 10.0 mi West 21.9 mph 31.1 mph N/A   Scattered Clouds
4:35 PM 33.8 °F 22.8 °F 23.0 °F 65% 30.22 in 10.0 mi West 18.4 mph 32.2 mph N/A   Mostly Cloudy
4:55 PM 33.8 °F 21.6 °F 24.8 °F 70% 30.23 in 10.0 mi WSW 23.0 mph 28.8 mph N/A   Mostly Cloudy
5:15 PM 33.8 °F 23.2 °F 23.0 °F 65% 30.24 in 10.0 mi West 17.3 mph 27.6 mph N/A   Mostly Cloudy
5:35 PM 32.0 °F 20.1 °F 23.0 °F 69% 30.25 in 10.0 mi WSW 19.6 mph 25.3 mph N/A   Mostly Cloudy
5:55 PM 32.0 °F 21.6 °F 23.0 °F 69% 30.26 in 10.0 mi WSW 15.0 mph - N/A   Mostly Cloudy
6:15 PM 32.0 °F 22.1 °F 24.8 °F 75% 30.27 in 10.0 mi WSW 13.8 mph 21.9 mph N/A   Scattered Clouds
6:35 PM 32.0 °F 22.5 °F 24.8 °F 75% 30.28 in 10.0 mi WSW 12.7 mph 23.0 mph N/A   Clear
6:55 PM 32.0 °F 23.0 °F 26.6 °F 80% 30.28 in 10.0 mi WSW 11.5 mph - N/A   Clear
7:15 PM 32.0 °F 23.6 °F 26.6 °F 80% 30.28 in 10.0 mi WSW 10.4 mph 17.3 mph N/A   Scattered Clouds
7:35 PM 32.0 °F 23.0 °F 26.6 °F 80% 30.29 in 10.0 mi WSW 11.5 mph - N/A   Scattered Clouds
7:55 PM 32.0 °F 23.0 °F 26.6 °F 80% 30.30 in 10.0 mi WSW 11.5 mph - N/A   Mostly Cloudy
8:35 PM 32.0 °F 24.2 °F 26.6 °F 80% 30.31 in 10.0 mi SW 9.2 mph - N/A   Overcast
8:55 PM 32.0 °F 24.2 °F 26.6 °F 80% 30.32 in 10.0 mi WSW 9.2 mph - N/A   Overcast
9:15 PM 32.0 °F 23.6 °F 26.6 °F 80% 30.32 in 10.0 mi WSW 10.4 mph - N/A   Overcast
9:35 PM 32.0 °F 23.6 °F 26.6 °F 80% 30.33 in 10.0 mi WSW 10.4 mph - N/A   Overcast
9:55 PM 32.0 °F 24.2 °F 26.6 °F 80% 30.34 in 10.0 mi SW 9.2 mph - N/A   Overcast
10:15 PM 32.0 °F 24.2 °F 26.6 °F 80% 30.34 in 10.0 mi SW 9.2 mph - N/A   Overcast
10:35 PM 32.0 °F 23.6 °F 26.6 °F 80% 30.35 in 10.0 mi SW 10.4 mph - N/A   Overcast
10:55 PM 32.0 °F 23.6 °F 26.6 °F 80% 30.35 in 10.0 mi WSW 10.4 mph - N/A   Overcast
11:15 PM 33.8 °F 25.3 °F 26.6 °F 75% 30.35 in 10.0 mi WSW 11.5 mph - N/A   Overcast
11:35 PM 32.0 °F 23.6 °F 26.6 °F 80% 30.35 in 10.0 mi WSW 10.4 mph - N/A   Overcast
11:55 PM 32.0 °F 23.6 °F 26.6 °F 80% 30.36 in 10.0 mi WSW 10.4 mph - N/A   Mostly Cloudy